Powrót do katalogu

STARLINK-4560

AktywnyŁącznośćSSO
NORAD 53691·PAYLOAD·🇺🇸 United States

Wystrzelony Aug 31, 2022 z Vandenberg Space Force Base

Loading…

Następne Przeloty (najbliższe 24 godziny)

TLE

ŚwieżeSource: CelesTrak SupGP

Epoka: Sep 14, 2026, 20:47 UTC

1 53691C 22105AV  26257.86645833 -.00034265  00000+0 -10638-2 0  2577
2 53691  97.2845 134.7038 0001764  90.9422 210.3777 15.33452575    19

Śledź STARLINK-4560 w czasie rzeczywistym z AllMySat

Download on the App Store